Location: Ferintosh
(52.7647°N, 112.9692°W)
Time: 15:59:07
(UTC+00:00)

Transit 2A Rocket - Pass Details

Date: 28 May 2024
Orbit: 583 x 910 km, 66.7° (Epoch: 22 June)

Event Time Altitude Azimuth Distance (km) Brightness Sun altitude
Rises 16:01:13 0° 315° (NW) 3,333 7.9 39.8°
Reaches altitude 10° 16:03:54 10° 326° (NNW) 2,450 7.3 40.1°
Maximum altitude 16:08:54 30° 27° (NNE) 1,516 7.0 40.9°
Drops below altitude 10° 16:14:08 10° 88° (E) 2,576 8.7 41.6°
Sets 16:17:01 0° 99° (E) 3,532 9.2 42.0°
